[[{"header":{"parameterUnit":"m.s-1","parameterCategory":1,"la1":30.2991,"la2":30.254,"lo1":-89.0895,"lo2":-89.0444,"dy":0.0017,"dx":0.0017,"nx":28,"ny":28,"refTime":"2025-03-16T09:00:00:Z","depth":0,"parameterNumber":2,"parameterNumberName":"U-component_of_WINDS"},"data":[0,0,0,0,0,0,0,0,0,0,0,0,0,0,0,0,0,0,0,0,0,0,0,0,0,0,0,0,0,0,0,0,0,0,0,0,0,0,0,0,0,0,0,0,0,0,0,0,0,0,0,0,0,0,0,0,0,0,5.1941,5.1944,0,5.2159,5.2162,5.2164,5.2132,5.2128,5.2124,5.2121,5.2352,5.2362,5.2371,0,0,0,0,0,0,0,0,0,0,0,0,0,5.1504,5.1513,5.1941,5.1944,5.1946,5.2159,5.2162,5.2165,5.2132,5.2128,5.2123,5.2119,5.2349,5.236,5.2372,0,0,0,0,0,0,0,0,0,0,0,0,0,5.1706,5.1515,5.1941,5.1956,5.1959,5.2158,5.2162,5.2166,5.2133,5.2128,5.2122,5.2117,5.2345,5.2359,5.2373,5.2574,0,0,5.2418,5.2424,0,0,0,0,0,0,0,0,5.1694,5.1722,5.1951,5.1955,5.1959,5.2112,5.2093,5.2303,5.2135,5.2068,5.2121,5.2114,5.2277,5.2297,5.2351,5.2585,5.2595,5.2419,5.2428,5.2434,5.2438,0,0,0,0,0,0,0,5.168,5.1712,5.2028,5.1954,5.1959,5.1954,5.1977,5.2133,5.2201,5.2073,5.2071,5.2097,5.2279,5.2337,5.2356,5.2598,5.2418,5.2431,5.244,5.2446,5.3012,5.3018,0,0,0,0,0,0,5.1661,5.1701,5.2021,5.2034,5.181,5.1967,5.1992,5.2069,5.2199,5.2214,5.2101,5.2095,5.2315,5.2339,5.2364,5.261,5.2434,5.2447,5.2455,5.3005,5.3013,5.302,0,0,0,0,0,0,5.1652,5.169,5.2012,5.1867,5.1908,5.198,5.2067,5.2076,5.2134,5.2221,5.2234,5.2148,5.2311,5.2343,5.2522,5.2617,5.2454,5.2467,5.2998,5.3008,5.3017,5.3101,0,0,0,0,0,0,5.164,5.1687,5.1762,5.1869,5.1915,5.2164,5.2073,5.2085,5.2158,5.2151,5.2268,5.2282,5.2309,5.2501,5.2537,5.2634,5.2478,5.299,5.3002,5.3014,5.309,5.3112,5.3131,0,0,0,0,0,5.1624,5.1778,5.1766,5.1804,5.201,5.217,5.2197,5.2223,5.2166,5.2243,5.23,5.2278,5.26,5.2519,5.2559,5.2663,5.2984,5.2999,5.3013,5.3081,5.3108,5.3131,0,0,0,0,0,0,5.1682,5.1792,5.178,5.1972,5.2062,5.2164,5.2262,5.2251,5.236,5.235,5.2381,5.2407,5.2589,5.2643,5.2551,5.2865,5.2785,5.2808,5.2823,5.2849,5.287,5.2854,5.249,0,0,0,0,0,5.1716,5.1834,5.1925,5.2086,5.2132,5.2189,5.226,5.2273,5.2368,5.2406,5.2475,5.2571,5.2694,5.2774,5.2892,5.3097,5.3124,5.3188,5.3209,5.3225,5.3246,5.3362,5.3392,5.3067,5.3067,5.3067,0,0,5.179,5.1865,5.1938,5.21,5.2171,5.2295,5.2222,5.2356,5.2449,5.2427,5.26,5.2655,5.2763,5.2957,5.3046,5.3008,5.3341,5.3244,5.3256,5.3268,5.338,5.341,5.3438,5.3077,5.3075,5.3074,0,0,5.1989,5.2055,5.2198,5.2271,5.2378,5.2416,5.245,5.2555,5.259,5.2763,5.275,5.2863,5.3074,5.3153,5.322,5.345,5.3436,5.3488,5.3596,5.3709,5.3735,5.3758,5.3843,5.3873,5.3508,5.3508,5.3508,0,5.2067,5.2252,5.2274,5.241,5.2484,5.2467,5.2614,5.2684,5.2826,5.2878,5.2833,5.3098,5.317,5.3384,5.344,5.3494,5.3537,5.3476,5.3729,5.3752,5.3774,5.3855,5.3887,5.3514,5.3513,5.3512,5.3512,0,5.2345,5.2473,5.2576,5.2712,5.2796,5.2937,5.2984,5.3068,5.3074,5.3117,5.3296,5.3382,5.3518,5.3569,5.3577,5.3785,5.3758,5.3721,5.3641,5.381,5.3888,5.3919,5.3522,5.352,5.3518,5.3517,0,0,5.2586,5.2732,5.277,5.2833,5.2951,5.3052,5.3194,5.3325,5.3397,5.3496,5.3618,5.3797,5.3764,5.3841,5.3857,5.3956,5.4137,5.3907,5.391,5.3949,5.4375,5.4404,5.444,5.4127,5.4133,5.4137,5.4367,0,5.2798,5.3045,5.3071,5.3294,5.3415,5.3402,5.3526,5.3614,5.3658,5.377,5.382,5.3947,5.3892,5.3939,5.4035,5.4094,5.4223,5.4077,5.4244,5.425,5.4219,5.448,5.4511,5.4723,5.4397,5.4402,5.4406,0,5.3078,5.3183,5.3418,5.3521,5.3573,5.3684,5.3807,5.3913,5.4013,5.4039,5.4126,5.413,5.428,5.4192,5.4401,5.4302,5.4371,5.4411,5.442,5.4438,5.4339,5.4508,5.4791,5.4824,5.4453,5.4449,5.4446,0,5.3234,5.3434,5.3601,5.3655,5.3779,5.3858,5.3914,5.4008,5.4086,5.4195,5.4247,5.4372,5.4442,5.4541,5.458,5.4512,5.4788,5.4703,5.4817,5.4816,5.4877,5.4873,5.5178,5.4918,5.4918,5.4917,5.4917,0,5.3469,5.3614,5.3673,5.3776,5.3939,5.3968,5.413,5.4182,5.4267,5.4383,5.4379,5.4488,5.4532,5.465,5.4681,5.4852,5.4882,5.491,5.4917,5.4912,5.4909,5.496,5.4947,5.4926,5.4924,5.4922,5.4921,0,5.3671,5.3716,5.3898,5.4,5.403,5.4146,5.4235,5.4337,5.4379,5.4526,5.4562,5.4631,5.4769,5.4817,5.4985,5.5007,5.5205,5.5199,5.5171,5.5173,5.5285,5.5275,5.5635,5.5685,5.539,5.5393,5.5395,0,5.3819,5.393,5.4045,5.4121,5.4179,5.4301,5.4381,5.4414,5.4498,5.4622,5.4709,5.4845,5.4956,5.5178,5.5245,5.5375,5.5373,5.549,5.5393,5.5384,5.5378,5.5372,5.5385,5.5509,5.5512,5.5515,5.5517,0,5.4079,5.4096,5.4208,5.4331,5.4425,5.4523,5.4619,5.4682,5.473,5.4825,5.4964,5.505,5.5221,5.5359,5.5491,5.5552,5.5545,5.5547,5.558,5.5577,5.5557,5.5572,5.5223,5.5539,5.5537,5.5535,5.5534,5.5533,5.426,5.4359,5.4455,5.4583,5.4657,5.4747,5.4848,5.4903,5.5019,5.516,5.5173,5.5325,5.5426,5.5602,5.567,5.5791,5.5759,5.5807,5.582,5.5832,5.5841,5.5536,5.5815,5.5814,5.5814,5.5814,5.5813,0,5.4522,5.4583,5.4699,5.4832,5.4933,5.4913,5.5019,5.5105,5.5238,5.5331,5.544,5.5603,5.5736,5.5814,5.5948,5.603,5.6031,5.6065,5.606,5.6075,5.5861,5.5819,5.6063,5.6063,5.6062,5.6062,5.6062,5.6062,5.4669,5.4837,5.4866,5.5071,5.5132,5.5279,5.5341,5.5425,5.55,5.568,5.579,5.5839,5.5928,5.6068,5.6191,5.621,5.6261,5.6299,5.6317,5.6115,5.609,5.6065,5.6027,5.6309,5.631,5.6521,5.6523,5.6524]},{"header":{"parameterUnit":"m.s-1","parameterCategory":1,"la1":30.2991,"la2":30.254,"lo1":-89.0895,"lo2":-89.0444,"dy":0.0017,"dx":0.0017,"nx":28,"ny":28,"refTime":"2025-03-16T09:00:00:Z","depth":0,"parameterNumber":3,"parameterNumberName":"V-component_of_WINDS"},"data":[0,0,0,0,0,0,0,0,0,0,0,0,0,0,0,0,0,0,0,0,0,0,0,0,0,0,0,0,0,0,0,0,0,0,0,0,0,0,0,0,0,0,0,0,0,0,0,0,0,0,0,0,0,0,0,0,0,0,0.0754,0.0754,0,0.0755,0.0755,0.0755,0.0748,0.0748,0.0747,0.0747,0.0749,0.075,0.075,0,0,0,0,0,0,0,0,0,0,0,0,0,0.0746,0.0746,0.0754,0.0754,0.0754,0.0755,0.0755,0.0755,0.0748,0.0748,0.0747,0.0747,0.0749,0.075,0.075,0,0,0,0,0,0,0,0,0,0,0,0,0,0.0748,0.0746,0.0754,0.075,0.075,0.0755,0.0755,0.0755,0.0748,0.0748,0.0747,0.0747,0.0749,0.075,0.075,0.0759,0,0,0.0751,0.0751,0,0,0,0,0,0,0,0,0.0748,0.0749,0.0751,0.0751,0.075,0.0751,0.0753,0.0757,0.0748,0.0749,0.0747,0.0747,0.075,0.0751,0.0752,0.0759,0.0759,0.0751,0.0751,0.0752,0.0752,0,0,0,0,0,0,0,0.0748,0.0749,0.0754,0.0751,0.0751,0.0749,0.0749,0.0754,0.0751,0.0749,0.0748,0.0748,0.075,0.0751,0.0752,0.0759,0.0751,0.0752,0.0752,0.0752,0.0773,0.0774,0,0,0,0,0,0,0.0748,0.0748,0.0754,0.0754,0.0748,0.0749,0.0749,0.0751,0.0751,0.0751,0.0749,0.0748,0.0751,0.0751,0.0752,0.0762,0.0752,0.0752,0.0752,0.0773,0.0773,0.0774,0,0,0,0,0,0,0.0748,0.0749,0.0754,0.0751,0.0752,0.075,0.0752,0.0751,0.0752,0.0751,0.0751,0.075,0.075,0.0751,0.0757,0.0762,0.0752,0.0753,0.0773,0.0773,0.0774,0.0782,0,0,0,0,0,0,0.0748,0.0749,0.0752,0.0751,0.0752,0.076,0.0752,0.0752,0.0753,0.0752,0.0753,0.0752,0.075,0.0756,0.0757,0.0762,0.0753,0.0772,0.0773,0.0774,0.0782,0.0783,0.0784,0,0,0,0,0,0.0747,0.0755,0.0752,0.0753,0.0756,0.076,0.076,0.0758,0.0753,0.0757,0.0756,0.0752,0.0761,0.0757,0.0758,0.0763,0.0772,0.0773,0.0773,0.0781,0.0783,0.0784,0,0,0,0,0,0,0.0756,0.0754,0.0752,0.0759,0.0759,0.0759,0.0763,0.076,0.0762,0.0761,0.0757,0.0758,0.0764,0.0764,0.076,0.0771,0.0766,0.0767,0.0771,0.0773,0.0774,0.0774,0.0753,0,0,0,0,0,0.0759,0.0762,0.076,0.0767,0.0767,0.0765,0.0766,0.0764,0.0765,0.0765,0.0765,0.0766,0.0769,0.0771,0.0773,0.0781,0.0781,0.0785,0.0787,0.0788,0.0789,0.0793,0.0795,0.0776,0.0776,0.0776,0,0,0.0765,0.0764,0.0766,0.0768,0.0769,0.0772,0.0765,0.0769,0.0772,0.0766,0.0771,0.0771,0.0772,0.0779,0.0782,0.0779,0.0794,0.0789,0.079,0.079,0.0794,0.0796,0.0797,0.0777,0.0777,0.0777,0,0,0.0777,0.0776,0.0782,0.0782,0.0782,0.0781,0.0782,0.0781,0.0781,0.0786,0.0782,0.0785,0.079,0.0791,0.0792,0.0804,0.08,0.0805,0.0812,0.0816,0.0817,0.0818,0.0823,0.0824,0.0805,0.0805,0.0805,0,0.0784,0.0788,0.0785,0.0789,0.079,0.0784,0.079,0.079,0.0792,0.0793,0.0789,0.0795,0.0796,0.0803,0.0805,0.0806,0.0808,0.0805,0.0817,0.0818,0.082,0.0823,0.0825,0.0806,0.0806,0.0806,0.0806,0,0.0797,0.08,0.0805,0.0805,0.0807,0.0812,0.0809,0.0811,0.0809,0.0807,0.0813,0.0813,0.0815,0.0817,0.0814,0.0823,0.0821,0.0818,0.0812,0.0822,0.0825,0.0827,0.0807,0.0807,0.0806,0.0806,0,0,0.0815,0.0814,0.0815,0.0815,0.0815,0.0818,0.0822,0.0824,0.0826,0.0827,0.0831,0.0835,0.0831,0.0832,0.083,0.0834,0.0843,0.083,0.083,0.0832,0.0853,0.0855,0.0857,0.0841,0.0841,0.0841,0.0852,0,0.0827,0.0834,0.0831,0.0838,0.0841,0.0836,0.084,0.084,0.0839,0.0841,0.084,0.0843,0.0838,0.0839,0.0842,0.0841,0.0847,0.084,0.0844,0.0844,0.0844,0.0859,0.0862,0.0873,0.0854,0.0854,0.0854,0,0.0841,0.0843,0.085,0.0849,0.085,0.0854,0.0855,0.0858,0.0858,0.0857,0.0858,0.0855,0.0859,0.0853,0.0859,0.0855,0.0856,0.0856,0.0856,0.0856,0.085,0.086,0.0876,0.0878,0.0857,0.0856,0.0856,0,0.0854,0.0857,0.0862,0.0863,0.0862,0.0864,0.0864,0.0864,0.0865,0.0866,0.0867,0.0869,0.087,0.0872,0.0869,0.0865,0.0875,0.0869,0.0875,0.0875,0.0877,0.0877,0.0894,0.0878,0.0878,0.0878,0.0878,0,0.0867,0.0872,0.0868,0.0871,0.0876,0.0872,0.0878,0.0877,0.0877,0.088,0.0875,0.0878,0.0875,0.0877,0.0875,0.088,0.0881,0.088,0.088,0.0881,0.0881,0.0882,0.0881,0.0878,0.0878,0.0878,0.0878,0,0.0882,0.0879,0.0884,0.0882,0.0882,0.0886,0.0885,0.0888,0.0886,0.089,0.089,0.0888,0.0891,0.0888,0.0891,0.089,0.0897,0.0895,0.0896,0.0896,0.0901,0.0901,0.0919,0.0922,0.0904,0.0904,0.0905,0,0.0891,0.0894,0.0893,0.0894,0.0894,0.0897,0.0898,0.0894,0.0896,0.0896,0.0899,0.0901,0.0903,0.0907,0.0906,0.0908,0.0906,0.0913,0.0907,0.0907,0.0906,0.0906,0.0907,0.0914,0.0914,0.0914,0.0915,0,0.0906,0.0905,0.0907,0.0908,0.0909,0.091,0.0911,0.0912,0.0908,0.091,0.0913,0.0914,0.0917,0.0919,0.092,0.092,0.0917,0.0916,0.0918,0.0919,0.0919,0.0919,0.09,0.0916,0.0916,0.0916,0.0916,0.0916,0.0918,0.0921,0.0921,0.0923,0.0923,0.0923,0.0926,0.0924,0.0926,0.0928,0.0925,0.0929,0.0928,0.093,0.093,0.0933,0.093,0.0932,0.0933,0.0933,0.0934,0.0919,0.0933,0.0933,0.0933,0.0933,0.0933,0,0.0934,0.0933,0.0935,0.0936,0.0937,0.0933,0.0934,0.0935,0.0938,0.0938,0.094,0.0943,0.0945,0.0943,0.0945,0.0948,0.0946,0.0948,0.0948,0.0948,0.0936,0.0935,0.0949,0.0949,0.0949,0.0949,0.0949,0.0949,0.0942,0.0947,0.0945,0.0949,0.0949,0.0951,0.0952,0.0952,0.0952,0.0956,0.0957,0.0956,0.0956,0.0957,0.0959,0.0959,0.096,0.0962,0.0961,0.095,0.0949,0.0947,0.0946,0.0963,0.0963,0.0973,0.0973,0.0973]}]]